Tracking 29892 objects as of 21-Nov-2024
HD Live streaming from Space Station
objects crossing your sky now

CZ-6A DEB

Track CZ-6A DEB now!
10-day predictions


NORAD ID: 54539
Int'l Code: 2022-151KP
Perigee: 835.9 km
Apogee: 904.4 km
Inclination: 98.8 °
Period: 102.2 minutes
Semi major axis: 7241 km
RCS: Unknown
Launch date: November 11, 2022
Source: People's Republic of China (PRC)
Launch site: Taiyaun Space Center, China (TSC)

Note: This is SATELLITE DEBRIS
Your satellite tracking list
Your tracking list is empty




NASA's NSSDC Master Catalog

Two Line Element Set (TLE):
1 54539U 22151KP  24325.89697612  .00000080  00000-0  70135-4 0  9999
2 54539  98.8235 324.5121 0047293 143.1743 217.2690 14.08935089103917
Source of the keplerian elements: AFSPC